Location: Unspecified
(45.0173°N, 35.2345°E)
Time: 16:20:45
(UTC+02:00)

ISS - Pass Details

Date: 23 January 2026
Orbit: 414 x 429 km, 51.6° (Epoch: 8 February)

Event Time Altitude Azimuth Distance (km) Brightness Sun altitude
Rises 18:07:46 0° 297° (WNW) 2,366 0.9 -16.4°
Reaches altitude 10° 18:10:00 10° 308° (NW) 1,504 -0.4 -16.8°
Maximum altitude 18:13:05 32° 14° (NNE) 756 -2.7 -17.4°
Enters shadow 18:13:15 31° 21° (NNE) 760 -2.8 -17.4°
